MST,Max TemperatureF,Mean TemperatureF,Min TemperatureF,Max Dew PointF,MeanDew PointF,Min DewpointF,Max Humidity, Mean Humidity, Min Humidity, Max Sea Level PressureIn, Mean Sea Level PressureIn, Min Sea Level PressureIn, Max VisibilityMiles, Mean VisibilityMiles, Min VisibilityMiles, Max Wind SpeedMPH, Mean Wind SpeedMPH, Max Gust SpeedMPH,PrecipitationIn, CloudCover, Events, WindDirDegrees
2011-12-1,25,13,1,21,12,-4,88,75,62,30.54,30.37,30.15,10,6,2,28,14,36,T,6,Snow,45
2011-12-2,34,18,1,23,16,0,92,71,50,30.37,29.98,29.81,10,5,0,23,10,26,0.11,5,Fog-Snow,359
2011-12-3,19,8,-3,14,9,-5,92,80,67,30.24,30.09,29.93,10,7,1,24,10,30,T,6,Snow,51
2011-12-4,18,9,-1,10,5,-9,84,74,63,30.52,30.22,29.98,10,7,1,23,11,28,T,7,Snow,320
2011-12-5,6,-5,-16,-4,-11,-20,86,76,65,30.59,30.44,30.08,10,10,10,22,6,25,0.00,1,,303
2011-12-6,18,8,-2,4,0,-8,72,63,54,30.46,30.41,30.36,10,10,10,25,9,33,0.00,0,,227
2011-12-7,30,21,12,15,10,4,65,58,50,30.41,30.29,30.13,10,10,10,21,11,30,0.00,1,,239
2011-12-8,29,24,19,18,14,8,84,71,57,30.23,30.16,30.08,10,10,9,26,15,32,T,2,,247
2011-12-9,30,23,15,15,11,7,73,62,50,30.45,30.35,30.24,10,10,10,28,14,33,0.00,1,,244
2011-12-10,30,16,2,15,7,-2,86,71,55,30.57,30.43,30.26,10,10,10,10,2,22,0.00,0,,148
2011-12-11,35,21,6,18,13,5,80,64,47,30.22,30.08,29.96,10,10,10,18,7,24,0.00,0,,228
2011-12-12,33,19,4,17,11,1,87,68,49,30.17,30.09,29.99,10,10,10,7,1,8,0.00,2,,142
2011-12-13,40,24,8,29,19,5,88,76,63,30.12,30.00,29.86,10,10,10,21,7,26,0.00,2,,237
2011-12-14,28,23,17,22,19,15,92,80,68,30.23,30.02,29.85,10,7,1,30,15,37,T,7,Snow,253
2011-12-15,32,23,13,20,16,12,96,80,63,30.32,30.25,30.11,10,10,10,25,11,30,0.00,2,,241
2011-12-16,26,19,11,16,13,7,92,76,60,30.57,30.48,30.34,10,10,10,29,11,33,0.00,0,,236
2011-12-17,36,25,14,15,11,7,67,55,43,30.57,30.46,30.35,10,10,10,20,8,23,0.00,0,,246
2011-12-18,41,24,7,13,10,5,83,57,30,30.34,30.15,30.05,10,10,10,17,5,22,0.00,0,,239
2011-12-19,26,19,11,22,16,6,92,80,67,30.25,30.17,30.04,10,10,10,23,11,29,0.00,4,,51
2011-12-20,28,17,5,20,14,3,92,78,63,30.25,30.07,29.90,10,9,2,23,9,29,0.00,4,,233
2011-12-21,30,24,18,19,16,12,84,69,53,30.18,29.91,29.77,10,6,1,28,17,35,T,7,Snow,338
2011-12-22,20,8,-5,12,6,-7,92,77,62,30.58,30.38,30.06,10,10,10,25,9,31,0.00,2,,23
2011-12-23,23,13,2,6,1,-4,76,61,45,30.69,30.61,30.51,10,10,10,24,9,31,0.00,0,,207
2011-12-24,28,13,-3,7,1,-6,79,57,35,30.74,30.69,30.61,10,10,10,22,4,32,0.00,0,,197
2011-12-25,36,18,0,17,8,-3,87,67,47,30.72,30.54,30.17,10,10,10,18,4,22,0.00,0,,228
2011-12-26,33,29,25,15,11,7,58,49,39,30.28,30.18,30.07,10,10,10,39,17,48,0.00,1,,251
2011-12-27,35,29,23,15,12,8,63,51,38,30.25,30.18,30.09,10,10,10,33,16,40,0.00,1,,249
2011-12-28,37,30,23,25,20,16,74,61,47,30.22,30.15,29.99,10,10,10,39,27,49,0.00,1,,246
2011-12-29,43,37,31,32,25,15,76,62,47,30.02,29.89,29.70,10,10,10,55,33,68,0.00,2,,256
2011-12-30,47,39,31,28,23,17,59,53,47,29.99,29.85,29.55,10,10,10,37,21,46,0.00,2,,231
2011-12-31,41,29,16,28,15,5,77,56,35,30.51,30.01,29.50,10,7,0,49,25,66,T,5,Fog-Snow,263